Regional Weather Roundup
Issued by NWS

Home | Current Version | Previous Version | Graphics & Text | Print | Product List | Glossary On
Versions: 1 2 3 4 5 6 7 8 9 10 11 12 13 14 15 16 17 18 19 20 21 22 23 24 25 26 27
000
ASUS45 KBOU 120210
RWRCO

WEATHER ROUNDUP FOR COLORADO
NATIONAL WEATHER SERVICE DENVER/BOULDER CO
700 PM MST MON DEC 11 2017

NOTE: "FAIR" INDICATES FEW OR NO CLOUDS BELOW 12000 FEET WITH NO
SIGNIFICANT WEATHER AND/OR OBSTRUCTIONS TO VISIBILITY.

COZ001>005-013-030-031-120300-
...NORTHWEST COLORADO...

CITY           SKY/WX    TMP DP  RH WIND       PRES   REMARKS
CRAIG          FAIR      17  12  80 CALM      30.52R
HAYDEN         FAIR      26  10  50 SE3       30.53R
MEEKER         FAIR      27   5  39 E3        30.49R
RABBIT EARS PA FAIR      28   9  43 W8        30.57S WCI  20
STEAMBOAT SPGS FAIR      27  12  53 CALM      30.52R
WALDEN         FAIR      19   9  63 SE8       30.54R WCI   9
$$

COZ006>008-011-120300-
...WEST CENTRAL VALLEYS...

CITY           SKY/WX    TMP DP  RH WIND       PRES   REMARKS
GRAND JUNCTION FAIR      30   0  27 CALM      30.46R
MONTROSE       FAIR      27   1  32 S8        30.50R WCI  19
EAGLE          FAIR      23  11  60 E5        30.57R WCI  17
RIFLE          FAIR      30   3  31 SE5       30.48R WCI  25
DELTA          FAIR      35  -3  20 N5        30.49R WCI  31
NUCLA          FAIR      34  -8  16 E8        30.49R WCI  27
$$

COZ017>023-064>068-120300-
...SOUTHWEST COLORADO...

CITY           SKY/WX    TMP DP  RH WIND       PRES   REMARKS
DURANGO        FAIR      28   3  34 NE3       30.42R
CORTEZ         FAIR      23   0  36 NE9       30.43R WCI  13
PAGOSA SPRINGS FAIR      30  -3  23 CALM      30.45R
TELLURIDE      FAIR      37  -1  19 CALM      30.54S
WOLF CREEK PAS FAIR      32  -9  16 N5        30.63S WCI  27
$$

COZ009-010-012-014-032>034-037-058>063-120300-
...CENTRAL COLORADO...

CITY           SKY/WX    TMP DP  RH WIND       PRES   REMARKS
ASPEN          FAIR      29  11  47 S8        30.52R WCI  21
BUENA VISTA    FAIR      36   5  27 CALM      30.50R
COPPER MTN     NOT AVBL
BERTHOUD PASS  FAIR      19   7  58 NW18G31   30.58R WCI   4
COTTONWOOD PAS FAIR      41   3  20 NW3       30.54R
GUNNISON       FAIR      21   4  47 E5        30.52R WCI  15
KREMMLING      FAIR      19  12  73 CALM      30.57S
LEADVILLE      FAIR      24   5  44 N6        30.54R WCI  17
MONARCH PASS   FAIR      30   0  27 W10       30.69S WCI  21
SALIDA         FAIR      37   0  21 W7        30.55R
SUNLIGHT       FAIR      30  10  43 N5        30.63S WCI  25
WILKERSON PASS FAIR      30   1  29 N7        30.59R WCI  23
$$

COZ069>075-120300-
...SAN LUIS VALLEY/SANGRE DE CRISTO MOUNTAINS...

CITY           SKY/WX    TMP DP  RH WIND       PRES   REMARKS
ALAMOSA        FAIR      28  -5  23 NW3       30.45R
DEL NORTE      FAIR      29  -4  24 W16       30.47R WCI  17
LA VETA PASS   FAIR      28   1  31 N14G20      N/A  WCI  17
SAGUACHE       FAIR      41   1  19 NW7       30.48R
$$

COZ035-036-038>040-120300-
...NORTHERN COLORADO FRONT RANGE...

CITY           SKY/WX    TMP DP  RH WIND       PRES   REMARKS
DENVER INTL AP FAIR      34   6  31 SE9       30.43R WCI  27
DMNS CITY PARK NOT AVBL
AURORA         PTCLDY    34   7  31 S8        30.45R WCI  27
FRONT RANGE AP PTCLDY    43   9  24 E5        30.43S
ERIE MUNI ARPT FAIR      36   7  30 SE5       30.48R
BOULDER MUN AP FAIR      45   7  21 S6        30.41S
CENTENNIAL     FAIR      37  11  34 S8        30.44R
BROOMFIELD     PTCLDY    41   9  26 SW6       30.44R
FORT COLLINS   FAIR      40  12  32 SE9       30.42R
LONGMONT       FAIR      36   9  32 CALM      30.44R
$$

COZ041-046-047-076>085-087-088-120300-
...PIKES PEAK/PALMER DIVIDE AND SOUTHERN FOOTHILLS...

CITY           SKY/WX    TMP DP  RH WIND       PRES   REMARKS
COLO. SPRINGS  FAIR      44   4  19 W6        30.46R
A. F. ACADEMY  FAIR      30   0  27 N12       30.46R WCI  21
SCHRIEVER AFB  FAIR      37   3  23 NW12      30.46R
CHEYENNE MTN   FAIR      39  -1  18 CALM      30.42R
ELLICOTT         N/A    N/A N/A N/A CALM      30.44R
FALCON         FAIR      37   2  23 N12       30.47R
FORT CARSON    FAIR      44  -2  14 W9        30.45R
LIMON          FAIR      25   5  42 N6        30.43R WCI  18
MONUMENT HILL  FAIR      30   5  34 SW7       30.48S WCI  23
CANON CITY     FAIR      41   3  20 N5        30.46R
WALSENBURG     FAIR      30   3  31 W8        30.48R WCI  23
TRINIDAD       FAIR      32   4  30 W6        30.46R WCI  26
$$

COZ042>045-048>051-090-091-120300-
...NORTHEAST COLORADO...

CITY           SKY/WX    TMP DP  RH WIND       PRES   REMARKS
GREELEY ARPT   FAIR      39  11  31 N6        30.42R
AKRON          FAIR      37   8  30 N17       30.40R
BURLINGTON     FAIR      40  10  29 N13       30.38R
WRAY           FAIR      34   9  35 N8        30.40R WCI  27
YUMA           FAIR      36  10  35 NW10      30.40R
STERLING       FAIR      32  10  40 N7        30.41R WCI  26
HOLYOKE        FAIR      36  12  38 N12       30.39R
FORT MORGAN    FAIR      37   4  24 N13       30.42R
$$

COZ086-089-092>099-120300-
...SOUTHEAST COLORADO...

CITY           SKY/WX    TMP DP  RH WIND       PRES   REMARKS
PUEBLO         FAIR      30   1  29 CALM      30.43R
LA JUNTA       FAIR      47   7  19 N5        30.42R
LAMAR          FAIR      41   9  26 CALM      30.39R
SPRINGFIELD      N/A     33   8  35 N10       30.40R WCI  25
$$




USA.gov is the U.S. government's official web portal to all federal, state and local government web resources and services.